Time,TemperatureF,DewpointF,PressureIn,WindDirection,WindDirectionDegrees,WindSpeedMPH,WindSpeedGustMPH,Humidity,HourlyPrecipIn,Conditions,Clouds,dailyrainin,SolarRadiationWatts/m^2,SoftwareType,DateUTC
2013-02-17 00:00:00,23.9,9.7,30.58,SSE,155,2.0,3.0,54,0.00,,,0.00,0,LWC V2.00 B727,2013-02-17 07:00:00,
2013-02-17 00:05:00,24.0,9.8,30.58,SSE,159,1.0,3.0,54,0.00,,,0.00,0,LWC V2.00 B727,2013-02-17 07:05:00,
2013-02-17 00:10:00,23.9,9.7,30.58,SSE,158,2.0,3.0,54,0.00,,,0.00,0,LWC V2.00 B727,2013-02-17 07:10:00,
2013-02-17 00:15:00,23.9,10.1,30.58,SSE,163,2.0,3.0,55,0.00,,,0.00,0,LWC V2.00 B727,2013-02-17 07:15:00,
2013-02-17 00:20:00,23.8,9.6,30.58,SSE,163,1.0,2.0,54,0.00,,,0.00,0,LWC V2.00 B727,2013-02-17 07:20:00,
2013-02-17 00:25:00,23.8,9.6,30.57,SSE,163,0.0,2.0,54,0.00,,,0.00,0,LWC V2.00 B727,2013-02-17 07:25:00,
2013-02-17 00:30:00,23.7,9.9,30.57,SSE,163,1.0,2.0,55,0.00,,,0.00,0,LWC V2.00 B727,2013-02-17 07:30:00,
2013-02-17 00:35:00,23.5,9.7,30.57,SSE,163,1.0,2.0,55,0.00,,,0.00,0,LWC V2.00 B727,2013-02-17 07:35:00,
2013-02-17 00:40:00,23.2,9.5,30.57,SSE,161,2.0,4.0,55,0.00,,,0.00,0,LWC V2.00 B727,2013-02-17 07:40:00,
2013-02-17 00:45:00,23.2,9.5,30.57,SSE,166,1.0,2.0,55,0.00,,,0.00,0,LWC V2.00 B727,2013-02-17 07:45:00,
2013-02-17 00:50:00,23.3,9.6,30.57,SSE,167,3.0,3.0,55,0.00,,,0.00,0,LWC V2.00 B727,2013-02-17 07:50:00,
2013-02-17 00:55:00,23.4,9.6,30.57,South,171,1.0,3.0,55,0.00,,,0.00,0,LWC V2.00 B727,2013-02-17 07:55:00,
2013-02-17 01:00:00,23.6,9.4,30.57,SSE,156,1.0,3.0,54,0.00,,,0.00,0,LWC V2.00 B727,2013-02-17 08:00:00,
2013-02-17 01:05:00,23.7,9.9,30.57,SSE,158,2.0,4.0,55,0.00,,,0.00,0,LWC V2.00 B727,2013-02-17 08:05:00,
2013-02-17 01:10:00,23.8,9.6,30.57,SSE,157,0.0,3.0,54,0.00,,,0.00,0,LWC V2.00 B727,2013-02-17 08:10:00,
2013-02-17 01:15:00,23.6,9.4,30.57,SSE,161,1.0,3.0,54,0.00,,,0.00,0,LWC V2.00 B727,2013-02-17 08:15:00,
2013-02-17 01:20:00,23.2,9.9,30.56,SSE,157,2.0,3.0,56,0.00,,,0.00,0,LWC V2.00 B727,2013-02-17 08:20:00,
2013-02-17 01:25:00,23.1,9.0,30.56,SSE,152,2.0,3.0,54,0.00,,,0.00,0,LWC V2.00 B727,2013-02-17 08:25:00,
2013-02-17 01:30:00,22.8,9.1,30.56,SSE,152,0.0,3.0,55,0.00,,,0.00,0,LWC V2.00 B727,2013-02-17 08:30:00,
2013-02-17 01:35:00,22.5,8.8,30.57,SSE,157,3.0,3.0,55,0.00,,,0.00,0,LWC V2.00 B727,2013-02-17 08:35:00,
2013-02-17 01:40:00,22.3,8.6,30.56,SSE,159,1.0,4.0,55,0.00,,,0.00,0,LWC V2.00 B727,2013-02-17 08:40:00,
2013-02-17 01:45:00,22.4,8.7,30.56,SSE,157,1.0,3.0,55,0.00,,,0.00,0,LWC V2.00 B727,2013-02-17 08:45:00,
2013-02-17 01:50:00,22.5,8.0,30.56,SSE,161,2.0,3.0,53,0.00,,,0.00,0,LWC V2.00 B727,2013-02-17 08:50:00,
2013-02-17 01:55:00,22.4,8.3,30.56,South,182,2.0,5.0,54,0.00,,,0.00,0,LWC V2.00 B727,2013-02-17 08:55:00,
2013-02-17 02:00:00,22.2,8.1,30.56,South,178,2.0,4.0,54,0.00,,,0.00,0,LWC V2.00 B727,2013-02-17 09:00:00,
2013-02-17 02:05:00,22.3,8.6,30.55,SSE,150,1.0,4.0,55,0.00,,,0.00,0,LWC V2.00 B727,2013-02-17 09:05:00,
2013-02-17 02:10:00,22.2,8.5,30.55,SSE,150,3.0,3.0,55,0.00,,,0.00,0,LWC V2.00 B727,2013-02-17 09:10:00,
2013-02-17 02:15:00,22.2,8.5,30.55,SSE,150,0.0,4.0,55,0.00,,,0.00,0,LWC V2.00 B727,2013-02-17 09:15:00,
2013-02-17 02:20:00,22.1,8.4,30.55,SSE,157,1.0,4.0,55,0.00,,,0.00,0,LWC V2.00 B727,2013-02-17 09:20:00,
2013-02-17 02:25:00,22.0,8.3,30.55,SSE,165,2.0,4.0,55,0.00,,,0.00,0,LWC V2.00 B727,2013-02-17 09:25:00,
2013-02-17 02:30:00,21.8,8.1,30.55,South,174,2.0,4.0,55,0.00,,,0.00,0,LWC V2.00 B727,2013-02-17 09:30:00,
2013-02-17 02:35:00,21.6,8.0,30.55,SSE,164,3.0,4.0,55,0.00,,,0.00,0,LWC V2.00 B727,2013-02-17 09:35:00,
2013-02-17 02:40:00,21.5,7.9,30.55,SSE,150,1.0,3.0,55,0.00,,,0.00,0,LWC V2.00 B727,2013-02-17 09:40:00,
2013-02-17 02:45:00,21.5,7.9,30.54,SSE,153,1.0,3.0,55,0.00,,,0.00,0,LWC V2.00 B727,2013-02-17 09:45:00,
2013-02-17 02:50:00,21.6,8.0,30.54,SSE,155,2.0,3.0,55,0.00,,,0.00,0,LWC V2.00 B727,2013-02-17 09:50:00,
2013-02-17 02:55:00,21.7,8.1,30.54,SSE,159,1.0,2.0,55,0.00,,,0.00,0,LWC V2.00 B727,2013-02-17 09:55:00,
2013-02-17 03:00:00,21.6,8.0,30.54,SSE,165,3.0,3.0,55,0.00,,,0.00,0,LWC V2.00 B727,2013-02-17 10:00:00,
2013-02-17 03:05:00,21.5,7.9,30.54,SSE,153,1.0,3.0,55,0.00,,,0.00,0,LWC V2.00 B727,2013-02-17 10:05:00,
2013-02-17 03:10:00,21.5,7.9,30.53,SSE,155,1.0,2.0,55,0.00,,,0.00,0,LWC V2.00 B727,2013-02-17 10:10:00,
2013-02-17 03:15:00,21.4,7.8,30.53,SSE,155,1.0,3.0,55,0.00,,,0.00,0,LWC V2.00 B727,2013-02-17 10:15:00,
2013-02-17 03:20:00,21.5,7.9,30.53,SSE,157,2.0,3.0,55,0.00,,,0.00,0,LWC V2.00 B727,2013-02-17 10:20:00,
2013-02-17 03:25:00,21.7,7.7,30.52,SSE,160,1.0,3.0,54,0.00,,,0.00,0,LWC V2.00 B727,2013-02-17 10:25:00,
2013-02-17 03:30:00,22.1,7.6,30.52,South,184,2.0,4.0,53,0.00,,,0.00,0,LWC V2.00 B727,2013-02-17 10:30:00,
2013-02-17 03:35:00,21.9,7.8,30.52,South,180,2.0,3.0,54,0.00,,,0.00,0,LWC V2.00 B727,2013-02-17 10:35:00,
2013-02-17 03:40:00,21.7,7.7,30.52,South,180,2.0,3.0,54,0.00,,,0.00,0,LWC V2.00 B727,2013-02-17 10:40:00,
2013-02-17 03:45:00,21.4,7.4,30.52,SSE,165,2.0,2.0,54,0.00,,,0.00,0,LWC V2.00 B727,2013-02-17 10:45:00,
2013-02-17 03:50:00,21.2,7.2,30.51,SSE,159,1.0,3.0,54,0.00,,,0.00,0,LWC V2.00 B727,2013-02-17 10:50:00,
2013-02-17 03:55:00,21.1,7.1,30.52,SSE,156,1.0,2.0,54,0.00,,,0.00,0,LWC V2.00 B727,2013-02-17 10:55:00,
2013-02-17 04:00:00,20.9,6.9,30.52,SSE,156,0.0,1.0,54,0.00,,,0.00,0,LWC V2.00 B727,2013-02-17 11:00:00,
2013-02-17 04:05:00,20.6,6.6,30.52,SSE,156,0.0,0.0,54,0.00,,,0.00,0,LWC V2.00 B727,2013-02-17 11:05:00,
2013-02-17 04:10:00,20.3,6.7,30.51,SSE,156,0.0,1.0,55,0.00,,,0.00,0,LWC V2.00 B727,2013-02-17 11:10:00,
2013-02-17 04:15:00,20.0,6.5,30.51,SSE,156,0.0,0.0,55,0.00,,,0.00,0,LWC V2.00 B727,2013-02-17 11:15:00,
2013-02-17 04:20:00,19.7,6.6,30.51,SSE,156,0.0,1.0,56,0.00,,,0.00,0,LWC V2.00 B727,2013-02-17 11:20:00,
2013-02-17 04:25:00,19.5,6.8,30.51,SSE,156,0.0,0.0,57,0.00,,,0.00,0,LWC V2.00 B727,2013-02-17 11:25:00,
2013-02-17 04:30:00,19.2,6.5,30.51,SSE,156,0.0,1.0,57,0.00,,,0.00,0,LWC V2.00 B727,2013-02-17 11:30:00,
2013-02-17 04:35:00,19.0,6.7,30.51,SSE,156,0.0,2.0,58,0.00,,,0.00,0,LWC V2.00 B727,2013-02-17 11:35:00,
2013-02-17 04:40:00,18.9,6.6,30.51,SSE,155,1.0,2.0,58,0.00,,,0.00,0,LWC V2.00 B727,2013-02-17 11:40:00,
2013-02-17 04:45:00,19.4,6.7,30.51,SSE,157,0.0,2.0,57,0.00,,,0.00,0,LWC V2.00 B727,2013-02-17 11:45:00,
2013-02-17 04:50:00,19.7,6.2,30.50,SSE,148,1.0,2.0,55,0.00,,,0.00,0,LWC V2.00 B727,2013-02-17 11:50:00,
2013-02-17 04:55:00,20.1,6.2,30.50,SSE,150,1.0,2.0,54,0.00,,,0.00,0,LWC V2.00 B727,2013-02-17 11:55:00,
2013-02-17 05:00:00,20.3,6.3,30.50,SSE,154,0.0,2.0,54,0.00,,,0.00,0,LWC V2.00 B727,2013-02-17 12:00:00,
2013-02-17 05:05:00,20.4,6.4,30.50,SSE,152,0.0,1.0,54,0.00,,,0.00,0,LWC V2.00 B727,2013-02-17 12:05:00,
2013-02-17 05:10:00,20.3,6.3,30.50,SSE,151,1.0,3.0,54,0.00,,,0.00,0,LWC V2.00 B727,2013-02-17 12:10:00,
2013-02-17 05:15:00,20.3,6.3,30.49,SSE,165,1.0,3.0,54,0.00,,,0.00,0,LWC V2.00 B727,2013-02-17 12:15:00,
2013-02-17 05:20:00,20.3,5.9,30.49,SSE,159,1.0,2.0,53,0.00,,,0.00,0,LWC V2.00 B727,2013-02-17 12:20:00,
2013-02-17 05:25:00,20.3,5.5,30.49,SSE,160,1.0,2.0,52,0.00,,,0.00,0,LWC V2.00 B727,2013-02-17 12:25:00,
2013-02-17 05:30:00,20.4,5.6,30.49,SSE,160,0.0,2.0,52,0.00,,,0.00,0,LWC V2.00 B727,2013-02-17 12:30:00,
2013-02-17 05:35:00,20.4,5.6,30.48,SSE,159,0.0,2.0,52,0.00,,,0.00,0,LWC V2.00 B727,2013-02-17 12:35:00,
2013-02-17 05:40:00,20.2,5.4,30.49,SSE,159,0.0,0.0,52,0.00,,,0.00,0,LWC V2.00 B727,2013-02-17 12:40:00,
2013-02-17 05:45:00,20.1,4.9,30.48,SSE,159,0.0,0.0,51,0.00,,,0.00,0,LWC V2.00 B727,2013-02-17 12:45:00,
2013-02-17 05:50:00,20.0,5.2,30.48,SSE,159,1.0,1.0,52,0.00,,,0.00,0,LWC V2.00 B727,2013-02-17 12:50:00,
2013-02-17 05:55:00,19.9,4.7,30.49,SSE,159,0.0,0.0,51,0.00,,,0.00,0,LWC V2.00 B727,2013-02-17 12:55:00,
2013-02-17 06:00:00,19.7,5.0,30.48,SSE,159,0.0,1.0,52,0.00,,,0.00,0,LWC V2.00 B727,2013-02-17 13:00:00,
2013-02-17 06:05:00,19.6,4.9,30.48,SSE,159,1.0,2.0,52,0.00,,,0.00,0,LWC V2.00 B727,2013-02-17 13:05:00,
2013-02-17 06:10:00,19.7,5.0,30.48,SSE,160,2.0,3.0,52,0.00,,,0.00,0,LWC V2.00 B727,2013-02-17 13:10:00,
2013-02-17 06:15:00,19.7,4.5,30.48,SSE,161,2.0,4.0,51,0.00,,,0.00,0,LWC V2.00 B727,2013-02-17 13:15:00,
2013-02-17 06:20:00,19.8,4.2,30.47,SSE,162,2.0,3.0,50,0.00,,,0.00,0,LWC V2.00 B727,2013-02-17 13:20:00,
2013-02-17 06:25:00,20.1,4.0,30.47,SSE,163,2.0,2.0,49,0.00,,,0.00,0,LWC V2.00 B727,2013-02-17 13:25:00,
2013-02-17 06:30:00,20.2,4.1,30.47,SSE,159,1.0,3.0,49,0.00,,,0.00,0,LWC V2.00 B727,2013-02-17 13:30:00,
2013-02-17 06:35:00,20.4,4.3,30.47,SSE,159,2.0,2.0,49,0.00,,,0.00,0,LWC V2.00 B727,2013-02-17 13:35:00,
2013-02-17 06:40:00,20.3,4.2,30.47,SSE,159,1.0,2.0,49,0.00,,,0.00,0,LWC V2.00 B727,2013-02-17 13:40:00,
2013-02-17 06:45:00,20.2,4.1,30.47,SSE,161,4.0,4.0,49,0.00,,,0.00,5,LWC V2.00 B727,2013-02-17 13:45:00,
2013-02-17 06:50:00,20.3,4.2,30.47,SSE,161,1.0,3.0,49,0.00,,,0.00,7,LWC V2.00 B727,2013-02-17 13:50:00,
2013-02-17 06:55:00,20.4,3.9,30.47,SSE,163,2.0,3.0,48,0.00,,,0.00,9,LWC V2.00 B727,2013-02-17 13:55:00,
2013-02-17 07:00:00,20.7,3.7,30.46,SSE,161,1.0,4.0,47,0.00,,,0.00,11,LWC V2.00 B727,2013-02-17 14:00:00,
2013-02-17 07:05:00,20.8,3.8,30.46,SSE,164,2.0,2.0,47,0.00,,,0.00,12,LWC V2.00 B727,2013-02-17 14:05:00,
2013-02-17 07:10:00,21.0,3.5,30.46,SSE,161,2.0,4.0,46,0.00,,,0.00,16,LWC V2.00 B727,2013-02-17 14:10:00,
2013-02-17 07:15:00,21.1,3.1,30.46,SSE,153,0.0,3.0,45,0.00,,,0.00,19,LWC V2.00 B727,2013-02-17 14:15:00,
2013-02-17 07:20:00,21.3,3.8,30.46,SSE,155,2.0,3.0,46,0.00,,,0.00,21,LWC V2.00 B727,2013-02-17 14:20:00,
2013-02-17 07:25:00,21.5,3.5,30.46,SSE,160,5.0,5.0,45,0.00,,,0.00,42,LWC V2.00 B727,2013-02-17 14:25:00,
2013-02-17 07:30:00,21.8,3.8,30.46,SSE,163,1.0,5.0,45,0.00,,,0.00,69,LWC V2.00 B727,2013-02-17 14:30:00,
2013-02-17 07:35:00,22.3,3.7,30.45,SSE,154,4.0,4.0,44,0.00,,,0.00,139,LWC V2.00 B727,2013-02-17 14:35:00,
2013-02-17 07:40:00,23.0,5.3,30.46,SSE,156,1.0,4.0,46,0.00,,,0.00,49,LWC V2.00 B727,2013-02-17 14:40:00,
2013-02-17 07:45:00,23.5,3.8,30.46,SE,144,3.0,4.0,42,0.00,,,0.00,28,LWC V2.00 B727,2013-02-17 14:45:00,
2013-02-17 07:50:00,23.6,4.4,30.46,South,176,2.0,4.0,43,0.00,,,0.00,32,LWC V2.00 B727,2013-02-17 14:50:00,
2013-02-17 07:55:00,23.6,4.4,30.45,SSE,163,1.0,4.0,43,0.00,,,0.00,37,LWC V2.00 B727,2013-02-17 14:55:00,
2013-02-17 08:00:00,23.6,4.4,30.45,SSE,159,2.0,3.0,43,0.00,,,0.00,47,LWC V2.00 B727,2013-02-17 15:00:00,
2013-02-17 08:05:00,23.5,4.8,30.45,SSE,162,1.0,3.0,44,0.00,,,0.00,60,LWC V2.00 B727,2013-02-17 15:05:00,
2013-02-17 08:10:00,23.4,4.7,30.45,SSE,164,2.0,4.0,44,0.00,,,0.00,109,LWC V2.00 B727,2013-02-17 15:10:00,
2013-02-17 08:15:00,23.6,4.4,30.45,SSE,162,0.0,4.0,43,0.00,,,0.00,74,LWC V2.00 B727,2013-02-17 15:15:00,
2013-02-17 08:20:00,23.7,5.0,30.45,SSE,161,2.0,3.0,44,0.00,,,0.00,153,LWC V2.00 B727,2013-02-17 15:20:00,
2013-02-17 08:25:00,24.2,5.5,30.44,SSE,161,2.0,4.0,44,0.00,,,0.00,253,LWC V2.00 B727,2013-02-17 15:25:00,
2013-02-17 08:30:00,25.2,6.4,30.44,SSE,167,4.0,4.0,44,0.00,,,0.00,206,LWC V2.00 B727,2013-02-17 15:30:00,
2013-02-17 08:35:00,26.1,6.7,30.44,South,180,2.0,3.0,43,0.00,,,0.00,271,LWC V2.00 B727,2013-02-17 15:35:00,
2013-02-17 08:40:00,27.3,7.8,30.43,South,180,3.0,4.0,43,0.00,,,0.00,153,LWC V2.00 B727,2013-02-17 15:40:00,
2013-02-17 08:45:00,28.4,8.3,30.43,South,178,2.0,4.0,42,0.00,,,0.00,297,LWC V2.00 B727,2013-02-17 15:45:00,
2013-02-17 08:50:00,29.7,8.4,30.43,South,171,2.0,3.0,40,0.00,,,0.00,220,LWC V2.00 B727,2013-02-17 15:50:00,
2013-02-17 08:55:00,31.0,8.4,30.42,South,175,0.0,3.0,38,0.00,,,0.00,385,LWC V2.00 B727,2013-02-17 15:55:00,
2013-02-17 09:00:00,32.4,8.5,30.42,South,169,1.0,2.0,36,0.00,,,0.00,492,LWC V2.00 B727,2013-02-17 16:00:00,
2013-02-17 09:05:00,33.6,8.9,30.42,South,176,1.0,3.0,35,0.00,,,0.00,503,LWC V2.00 B727,2013-02-17 16:05:00,
2013-02-17 09:10:00,34.7,9.2,30.42,South,176,0.0,1.0,34,0.00,,,0.00,517,LWC V2.00 B727,2013-02-17 16:10:00,
2013-02-17 09:15:00,35.9,9.6,30.42,South,176,0.0,0.0,33,0.00,,,0.00,534,LWC V2.00 B727,2013-02-17 16:15:00,
2013-02-17 09:20:00,37.3,8.7,30.42,South,176,0.0,0.0,30,0.00,,,0.00,548,LWC V2.00 B727,2013-02-17 16:20:00,
2013-02-17 09:25:00,38.5,8.3,30.41,South,176,0.0,0.0,28,0.00,,,0.00,566,LWC V2.00 B727,2013-02-17 16:25:00,
2013-02-17 09:30:00,39.6,8.4,30.41,South,176,0.0,2.0,27,0.00,,,0.00,582,LWC V2.00 B727,2013-02-17 16:30:00,
2013-02-17 09:35:00,40.6,11.6,30.40,South,176,0.0,3.0,30,0.00,,,0.00,594,LWC V2.00 B727,2013-02-17 16:35:00,
2013-02-17 09:40:00,41.3,12.2,30.40,ESE,122,0.0,3.0,30,0.00,,,0.00,612,LWC V2.00 B727,2013-02-17 16:40:00,
2013-02-17 09:41:00,41.5,12.4,30.40,East,83,2.0,2.0,30,0.00,,,0.00,619,LWC V2.00 B727,2013-02-17 16:41:00,
2013-02-17 09:46:00,42.0,12.1,30.39,ENE,78,2.0,2.0,29,0.00,,,0.00,640,LWC V2.00 B727,2013-02-17 16:46:00,
2013-02-17 09:51:00,42.6,14.1,30.39,NNE,26,3.0,6.0,31,0.00,,,0.00,578,LWC V2.00 B727,2013-02-17 16:51:00,
2013-02-17 09:56:00,42.8,9.4,30.38,NNE,26,0.0,1.0,25,0.00,,,0.00,503,LWC V2.00 B727,2013-02-17 16:56:00,
2013-02-17 10:01:00,43.1,9.7,30.38,NNE,25,0.0,0.0,25,0.00,,,0.00,677,LWC V2.00 B727,2013-02-17 17:01:00,
2013-02-17 10:06:00,43.8,11.2,30.37,NE,44,0.0,1.0,26,0.00,,,0.00,506,LWC V2.00 B727,2013-02-17 17:06:00,
2013-02-17 10:11:00,44.4,9.0,30.37,NE,44,0.0,1.0,23,0.00,,,0.00,701,LWC V2.00 B727,2013-02-17 17:11:00,
2013-02-17 10:16:00,45.0,11.3,30.36,NE,50,1.0,2.0,25,0.00,,,0.00,661,LWC V2.00 B727,2013-02-17 17:16:00,
2013-02-17 10:21:00,45.5,10.8,30.36,NE,55,1.0,2.0,24,0.00,,,0.00,733,LWC V2.00 B727,2013-02-17 17:21:00,
2013-02-17 10:26:00,46.1,9.4,30.36,NE,55,1.0,2.0,22,0.00,,,0.00,642,LWC V2.00 B727,2013-02-17 17:26:00,
2013-02-17 10:32:00,46.3,11.5,30.35,NE,56,0.0,2.0,24,0.00,,,0.00,612,LWC V2.00 B727,2013-02-17 17:32:00,
2013-02-17 10:37:00,46.7,9.9,30.35,NE,56,0.0,0.0,22,0.00,,,0.00,747,LWC V2.00 B727,2013-02-17 17:37:00,
2013-02-17 10:40:00,47.4,11.5,30.35,NE,56,0.0,1.0,23,0.00,,,0.00,789,LWC V2.00 B727,2013-02-17 17:40:00,
2013-02-17 10:42:00,47.6,11.7,30.35,WNW,291,3.0,4.0,23,0.00,,,0.00,763,LWC V2.00 B727,2013-02-17 17:42:00,
2013-02-17 10:47:00,48.0,7.7,30.35,WSW,247,0.0,2.0,19,0.00,,,0.00,543,LWC V2.00 B727,2013-02-17 17:47:00,
2013-02-17 10:50:00,46.3,9.6,30.35,NE,45,0.0,3.0,22,0.00,,,0.00,677,LWC V2.00 B727,2013-02-17 17:50:00,
2013-02-17 11:00:00,47.9,7.6,30.33,WSW,248,1.0,7.0,19,0.00,,,0.00,658,LWC V2.00 B727,2013-02-17 18:00:00,
2013-02-17 11:10:00,47.9,7.6,30.33,WSW,248,1.0,7.0,19,0.00,,,0.00,658,LWC V2.00 B727,2013-02-17 18:10:00,
2013-02-17 11:20:00,47.9,7.6,30.33,WSW,248,1.0,7.0,19,0.00,,,0.00,658,LWC V2.00 B727,2013-02-17 18:20:00,
2013-02-17 11:30:00,48.1,9.0,30.30,SW,225,2.0,8.0,20,0.00,,,0.00,745,LWC V2.00 B727,2013-02-17 18:30:00,
2013-02-17 11:40:00,48.1,9.0,30.30,SW,225,2.0,8.0,20,0.00,,,0.00,745,LWC V2.00 B727,2013-02-17 18:40:00,
2013-02-17 11:50:00,48.1,9.0,30.30,SW,225,2.0,8.0,20,0.00,,,0.00,745,LWC V2.00 B727,2013-02-17 18:50:00,
2013-02-17 12:00:00,47.6,9.6,30.27,North,0,2.0,10.0,21,0.00,,,0.00,603,LWC V2.00 B727,2013-02-17 19:00:00,
2013-02-17 12:10:00,47.6,9.6,30.27,North,0,2.0,10.0,21,0.00,,,0.00,603,LWC V2.00 B727,2013-02-17 19:10:00,
2013-02-17 12:20:00,47.6,9.6,30.27,North,0,2.0,10.0,21,0.00,,,0.00,603,LWC V2.00 B727,2013-02-17 19:20:00,
2013-02-17 12:30:00,48.0,14.8,30.24,WSW,248,2.0,8.0,26,0.00,,,0.00,454,LWC V2.00 B727,2013-02-17 19:30:00,
2013-02-17 12:40:00,48.0,14.8,30.24,WSW,248,2.0,8.0,26,0.00,,,0.00,454,LWC V2.00 B727,2013-02-17 19:40:00,
2013-02-17 12:50:00,48.0,14.8,30.24,WSW,248,2.0,8.0,26,0.00,,,0.00,454,LWC V2.00 B727,2013-02-17 19:50:00,
2013-02-17 13:00:00,49.8,6.8,30.21,SW,225,5.0,18.0,17,0.00,,,0.00,732,LWC V2.00 B727,2013-02-17 20:00:00,
2013-02-17 13:10:00,49.8,6.8,30.21,SW,225,5.0,18.0,17,0.00,,,0.00,732,LWC V2.00 B727,2013-02-17 20:10:00,
2013-02-17 13:20:00,49.8,6.8,30.21,SW,225,5.0,18.0,17,0.00,,,0.00,732,LWC V2.00 B727,2013-02-17 20:20:00,
2013-02-17 13:30:00,49.5,7.8,30.19,WSW,248,6.0,14.0,18,0.00,,,0.00,450,LWC V2.00 B727,2013-02-17 20:30:00,
2013-02-17 13:40:00,49.5,7.8,30.19,WSW,248,6.0,14.0,18,0.00,,,0.00,450,LWC V2.00 B727,2013-02-17 20:40:00,
2013-02-17 13:50:00,49.5,7.8,30.19,WSW,248,6.0,14.0,18,0.00,,,0.00,450,LWC V2.00 B727,2013-02-17 20:50:00,
2013-02-17 14:00:00,50.5,10.9,30.17,WSW,248,7.0,16.0,20,0.00,,,0.00,507,LWC V2.00 B727,2013-02-17 21:00:00,
2013-02-17 14:10:00,50.5,10.9,30.17,WSW,248,7.0,16.0,20,0.00,,,0.00,507,LWC V2.00 B727,2013-02-17 21:10:00,
2013-02-17 14:20:00,50.5,10.9,30.17,WSW,248,7.0,16.0,20,0.00,,,0.00,507,LWC V2.00 B727,2013-02-17 21:20:00,
2013-02-17 14:30:00,49.7,9.1,30.14,SSW,202,7.0,16.0,19,0.00,,,0.00,529,LWC V2.00 B727,2013-02-17 21:30:00,
2013-02-17 14:40:00,49.7,9.1,30.14,SSW,202,7.0,16.0,19,0.00,,,0.00,529,LWC V2.00 B727,2013-02-17 21:40:00,
2013-02-17 14:50:00,49.7,9.1,30.14,SSW,202,7.0,16.0,19,0.00,,,0.00,529,LWC V2.00 B727,2013-02-17 21:50:00,
2013-02-17 15:00:00,50.0,9.4,30.13,SW,225,8.0,19.0,19,0.00,,,0.00,622,LWC V2.00 B727,2013-02-17 22:00:00,
2013-02-17 15:10:00,50.0,9.4,30.13,SW,225,8.0,19.0,19,0.00,,,0.00,622,LWC V2.00 B727,2013-02-17 22:10:00,
2013-02-17 15:20:00,50.0,9.4,30.13,SW,225,8.0,19.0,19,0.00,,,0.00,622,LWC V2.00 B727,2013-02-17 22:20:00,
2013-02-17 15:30:00,49.4,7.7,30.12,WSW,248,7.0,21.0,18,0.00,,,0.00,543,LWC V2.00 B727,2013-02-17 22:30:00,
2013-02-17 15:40:00,49.4,7.7,30.12,WSW,248,7.0,21.0,18,0.00,,,0.00,543,LWC V2.00 B727,2013-02-17 22:40:00,
2013-02-17 15:50:00,49.4,7.7,30.12,WSW,248,7.0,21.0,18,0.00,,,0.00,543,LWC V2.00 B727,2013-02-17 22:50:00,
2013-02-17 16:00:00,49.3,7.6,30.11,SW,225,6.0,16.0,18,0.00,,,0.00,458,LWC V2.00 B727,2013-02-17 23:00:00,
2013-02-17 16:10:00,49.3,7.6,30.11,SW,225,6.0,16.0,18,0.00,,,0.00,458,LWC V2.00 B727,2013-02-17 23:10:00,
2013-02-17 16:20:00,49.3,7.6,30.11,SW,225,6.0,16.0,18,0.00,,,0.00,458,LWC V2.00 B727,2013-02-17 23:20:00,
2013-02-17 16:30:00,47.4,7.2,30.10,WSW,248,6.0,15.0,19,0.00,,,0.00,357,LWC V2.00 B727,2013-02-17 23:30:00,
2013-02-17 16:40:00,47.4,7.2,30.10,WSW,248,6.0,15.0,19,0.00,,,0.00,357,LWC V2.00 B727,2013-02-17 23:40:00,
2013-02-17 16:50:00,47.4,7.2,30.10,WSW,248,6.0,15.0,19,0.00,,,0.00,357,LWC V2.00 B727,2013-02-17 23:50:00,
2013-02-17 17:00:00,45.5,7.9,30.09,SSW,202,6.0,17.0,21,0.00,,,0.00,189,LWC V2.00 B727,2013-02-18 00:00:00,
2013-02-17 17:10:00,45.5,7.9,30.09,SSW,202,6.0,17.0,21,0.00,,,0.00,189,LWC V2.00 B727,2013-02-18 00:10:00,
2013-02-17 17:20:00,45.5,7.9,30.09,SSW,202,6.0,17.0,21,0.00,,,0.00,189,LWC V2.00 B727,2013-02-18 00:20:00,
2013-02-17 17:30:00,45.5,7.9,30.09,SSW,202,6.0,17.0,21,0.00,,,0.00,189,LWC V2.00 B727,2013-02-18 00:30:00,
2013-02-17 17:40:00,43.9,7.6,30.09,WSW,248,5.0,11.0,22,0.00,,,0.00,66,LWC V2.00 B727,2013-02-18 00:40:00,
2013-02-17 17:50:00,43.9,7.6,30.09,WSW,248,5.0,11.0,22,0.00,,,0.00,66,LWC V2.00 B727,2013-02-18 00:50:00,
2013-02-17 18:00:00,43.9,7.6,30.09,WSW,248,5.0,11.0,22,0.00,,,0.00,66,LWC V2.00 B727,2013-02-18 01:00:00,
2013-02-17 18:10:00,41.5,7.4,30.09,SW,225,4.0,13.0,24,0.00,,,0.00,5,LWC V2.00 B727,2013-02-18 01:10:00,
2013-02-17 18:20:00,41.5,7.4,30.09,SW,225,4.0,13.0,24,0.00,,,0.00,5,LWC V2.00 B727,2013-02-18 01:20:00,
2013-02-17 18:30:00,41.5,7.4,30.09,SW,225,4.0,13.0,24,0.00,,,0.00,5,LWC V2.00 B727,2013-02-18 01:30:00,
2013-02-17 18:40:00,39.1,7.1,30.09,SSW,202,2.0,9.0,26,0.00,,,0.00,0,LWC V2.00 B727,2013-02-18 01:40:00,
2013-02-17 18:50:00,39.1,7.1,30.09,SSW,202,2.0,9.0,26,0.00,,,0.00,0,LWC V2.00 B727,2013-02-18 01:50:00,
2013-02-17 19:00:00,39.1,7.1,30.09,SSW,202,2.0,9.0,26,0.00,,,0.00,0,LWC V2.00 B727,2013-02-18 02:00:00,
2013-02-17 19:10:00,38.2,8.0,30.08,SSW,202,3.0,10.0,28,0.00,,,0.00,0,LWC V2.00 B727,2013-02-18 02:10:00,
2013-02-17 19:20:00,38.2,8.0,30.08,SSW,202,3.0,10.0,28,0.00,,,0.00,0,LWC V2.00 B727,2013-02-18 02:20:00,
2013-02-17 19:30:00,38.2,8.0,30.08,SSW,202,3.0,10.0,28,0.00,,,0.00,0,LWC V2.00 B727,2013-02-18 02:30:00,
2013-02-17 19:40:00,36.2,7.0,30.08,SSW,202,3.0,9.0,29,0.00,,,0.00,0,LWC V2.00 B727,2013-02-18 02:40:00,
2013-02-17 19:50:00,36.2,7.0,30.08,SSW,202,3.0,9.0,29,0.00,,,0.00,0,LWC V2.00 B727,2013-02-18 02:50:00,
2013-02-17 20:00:00,36.2,7.0,30.08,SSW,202,3.0,9.0,29,0.00,,,0.00,0,LWC V2.00 B727,2013-02-18 03:00:00,
2013-02-17 20:10:00,36.4,7.2,30.09,SSW,202,3.0,8.0,29,0.00,,,0.00,0,LWC V2.00 B727,2013-02-18 03:10:00,
2013-02-17 20:20:00,36.4,7.2,30.09,SSW,202,3.0,8.0,29,0.00,,,0.00,0,LWC V2.00 B727,2013-02-18 03:20:00,
2013-02-17 20:30:00,36.4,7.2,30.09,SSW,202,3.0,8.0,29,0.00,,,0.00,0,LWC V2.00 B727,2013-02-18 03:30:00,
2013-02-17 20:40:00,36.7,7.5,30.08,South,180,3.0,8.0,29,0.00,,,0.00,0,LWC V2.00 B727,2013-02-18 03:40:00,
2013-02-17 20:50:00,36.7,7.5,30.08,South,180,3.0,8.0,29,0.00,,,0.00,0,LWC V2.00 B727,2013-02-18 03:50:00,
2013-02-17 21:00:00,36.7,7.5,30.08,South,180,3.0,8.0,29,0.00,,,0.00,0,LWC V2.00 B727,2013-02-18 04:00:00,
2013-02-17 21:10:00,37.0,8.5,30.08,SSW,202,2.0,8.0,30,0.00,,,0.00,0,LWC V2.00 B727,2013-02-18 04:10:00,
2013-02-17 21:20:00,37.0,8.5,30.08,SSW,202,2.0,8.0,30,0.00,,,0.00,0,LWC V2.00 B727,2013-02-18 04:20:00,
2013-02-17 21:30:00,37.0,8.5,30.08,SSW,202,2.0,8.0,30,0.00,,,0.00,0,LWC V2.00 B727,2013-02-18 04:30:00,
2013-02-17 21:40:00,35.3,9.8,30.08,SW,225,0.0,6.0,34,0.00,,,0.00,0,LWC V2.00 B727,2013-02-18 04:40:00,
2013-02-17 21:50:00,35.3,9.8,30.08,SW,225,0.0,6.0,34,0.00,,,0.00,0,LWC V2.00 B727,2013-02-18 04:50:00,
2013-02-17 22:00:00,35.3,9.8,30.08,SW,225,0.0,6.0,34,0.00,,,0.00,0,LWC V2.00 B727,2013-02-18 05:00:00,
2013-02-17 22:10:00,32.5,8.5,30.08,SSW,202,0.0,4.0,36,0.00,,,0.00,0,LWC V2.00 B727,2013-02-18 05:10:00,
2013-02-17 22:20:00,32.5,8.5,30.08,SSW,202,0.0,4.0,36,0.00,,,0.00,0,LWC V2.00 B727,2013-02-18 05:20:00,
2013-02-17 22:30:00,32.5,8.5,30.08,SSW,202,0.0,4.0,36,0.00,,,0.00,0,LWC V2.00 B727,2013-02-18 05:30:00,
2013-02-17 22:40:00,34.4,9.0,30.08,SW,225,1.0,10.0,34,0.00,,,0.00,0,LWC V2.00 B727,2013-02-18 05:40:00,
2013-02-17 22:50:00,34.4,9.0,30.08,SW,225,1.0,10.0,34,0.00,,,0.00,0,LWC V2.00 B727,2013-02-18 05:50:00,
2013-02-17 23:00:00,34.9,10.1,30.09,WSW,248,1.0,7.0,35,0.00,,,0.00,0,LWC V2.00 B727,2013-02-18 06:00:00,
2013-02-17 23:10:00,34.9,10.1,30.09,WSW,248,1.0,7.0,35,0.00,,,0.00,0,LWC V2.00 B727,2013-02-18 06:10:00,
2013-02-17 23:20:00,34.9,10.1,30.09,WSW,248,1.0,7.0,35,0.00,,,0.00,0,LWC V2.00 B727,2013-02-18 06:20:00,
2013-02-17 23:30:00,34.8,10.0,30.07,WSW,248,2.0,7.0,35,0.00,,,0.00,0,LWC V2.00 B727,2013-02-18 06:30:00,
2013-02-17 23:40:00,34.8,10.0,30.07,WSW,248,2.0,7.0,35,0.00,,,0.00,0,LWC V2.00 B727,2013-02-18 06:40:00,
2013-02-17 23:50:00,34.8,10.0,30.07,WSW,248,2.0,7.0,35,0.00,,,0.00,0,LWC V2.00 B727,2013-02-18 06:50:00,